RH
89 91 84 82 83 83 84 82 83 97 99 99 99 99 100 100 100 100 99 100 100 99 99 94 95 93 93 90 94 87 86 76 68 74 75 82 87 81 72 66 78 79 90 96 93 96 91 48 45 62 62 60 63 65
92 77 70 60 59 76 58 62 78 84 93 89 92 99 99 99 100 100 100 100 100 99 98 100 100 98 97 95 91 91 87 67 63 78 92 82 88 82 82 91 61 77 69 88 81 72 51 50 53 63 63 65 68 66
80 69 65 55 43 37 30 32 41 65 70 80 84 89 98 99 98 100 100 100 100 99 96 98 98 99 100 100 96 92 95 75 64 68 73 91 97 91 94 96 71 52 50 63 71 59 57 60 64 66 67 68 68 67
88 70 66 59 54 42 52 87 90 77 77 85 78 79 85 88 97 99 99 99 96 98 100 98 98 100 100 100 99 99 94 90 76 78 95 96 92 75 94 82 65 53 50 54 60 64 71 71 70 70 71 71 67 67
98 73 67 61 54 41 83 99 98 90 85 82 79 81 88 88 89 89 90 92 98 95 98 98 90 89 93 100 100 100 100 97 98 99 99 95 93 87 86 76 90 58 63 64 69 65 64 70 73 72 72 69 71 74
100 90 72 66 60 53 48 60 78 85 88 87 85 77 91 100 100 96 99 99 100 99 97 94 88 81 80 96 100 100 100 100 97 93 94 95 89 77 90 90 64 66 67 66 67 71 72 74 76 75 71 73 74 75
100 100 80 73 67 64 61 57 51 51 82 91 87 85 77 99 100 94 82 77 98 99 96 93 84 85 91 100 100 100 100 99 97 94 97 79 76 76 92 95 72 73 69 66 68 70 73 75 75 76 76 72 63 58
98 100 99 90 78 71 67 63 57 51 82 97 93 88 98 100 100 100 83 76 96 98 99 96 94 78 90 82 89 90 93 93 90 85 86 72 72 78 95 77 77 76 75 76 78 76 76 78 81 77 70 60 55 57
89 100 100 99 97 87 77 70 62 51 85 94 96 96 100 100 99 99 94 98 98 94 95 83 91 90 77 79 82 81 83 95 84 85 80 75 83 94 82 78 81 80 79 80 79 78 82 80 79 70 64 60 59 61
76 94 100 100 100 99 88 75 62 62 88 96 100 100 100 100 100 99 99 98 100 100 96 80 76 92 81 84 85 82 86 93 100 86 78 95 88 90 88 87 86 87 88 86 83 84 79 74 73 69 67 68 71 70
67 81 97 100 100 99 95 77 64 83 98 100 99 99 99 100 99 98 98 96 98 94 97 79 73 92 87 88 93 80 94 94 98 85 92 96 97 97 96 95 96 94 92 89 85 82 82 79 76 73 70 72 73 74
64 65 76 92 100 100 92 81 69 91 100 99 100 96 98 99 99 95 97 94 88 86 80 80 80 82 85 82 81 96 95 94 95 91 96 98 93 98 98 96 95 94 90 84 81 81 80 79 77 74 75 75 75 78
72 63 69 81 86 91 94 75 76 98 99 100 99 98 97 97 96 96 96 92 94 83 82 94 92 75 87 85 93 92 96 96 86 97 95 92 100 99 96 95 95 91 86 84 83 83 81 82 81 78 76 78 79 80
70 64 65 70 77 88 98 80 95 100 100 99 98 96 94 98 96 92 90 86 64 72 83 72 92 80 84 86 96 88 91 88 99 100 94 95 96 94 94 92 90 87 83 81 82 82 85 86 83 83 83 84 82 84
75 71 70 77 86 98 99 90 99 100 99 99 98 96 98 91 92 88 77 78 79 78 73 62 73 75 93 96 95 91 97 99 93 88 94 94 97 95 93 84 77 75 78 83 85 88 92 90 88 87 88 87 88 91
75 78 86 84 97 98 98 96 100 99 99 96 95 95 96 90 100 94 94 92 86 78 51 47 92 86 92 91 94 90 83 84 83 94 95 96 96 93 86 80 76 80 87 90 93 93 94 94 92 91 92 95 95 96
87 87 75 84 91 99 98 98 100 97 96 95 96 96 93 84 94 98 97 90 76 52 85 72 67 66 90 98 96 92 91 92 96 98 98 98 89 82 76 78 85 91 92 94 95 95 94 95 95 94 94 92 95 97
82 78 71 76 99 99 100 99 97 95 96 98 95 99 94 96 95 98 96 87 72 58 62 74 69 87 85 75 89 95 99 100 99 95 95 88 79 79 82 86 88 90 92 93 94 93 92 94 92 95 94 94 97 96
78 81 82 89 90 96 96 96 95 95 99 95 99 98 97 98 92 91 98 84 62 46 44 64 87 98 95 93 97 96 96 94 95 93 85 87 85 84 87 89 89 91 92 93 94 93 93 94 94 96 97 96 97 97
86 100 100 94 94 82 94 95 95 89 95 96 94 94 96 97 99 97 82 55 50 46 56 89 94 98 94 92 90 89 90 86 78 83 89 90 88 89 90 91 91 92 93 94 95 97 94 91 98 96 96 97 97 96
100 98 98 99 98 91 94 96 94 95 95 92 97 96 96 95 96 96 94 85 75 89 92 95 95 94 95 93 88 79 77 78 80 86 87 93 92 92 91 91 90 92 93 92 92 82 84 90 93 95 95 96 96 96
96 97 97 96 94 94 94 95 95 93 91 96 92 96 95 95 95 95 96 83 88 92 95 95 92 86 83 83 81 80 80 81 83 84 86 95 90 90 92 92 93 92 93 89 78 77 80 85 92 96 96 95 94 89
85 84 78 89 94 94 95 95 95 95 94 96 95 95 95 95 96 94 88 91 93 93 94 93 91 90 90 88 86 85 85 85 87 89 89 88 89 92 94 92 93 94 79 77 75 74 77 79 86 90 92 95 96 94
29 20 22 32 55 94 77 79 84 94 95 95 95 95 95 91 87 83 95 97 99 97 95 94 93 94 93 91 91 89 89 89 90 90 89 89 89 94 95 94 94 80 72 68 69 70 72 71 72 74 73 73 74 75
19 43 37 72 59 62 82 86 81 82 91 90 89 93 92 87 91 92 93 97 100 96 95 94 92 92 93 93 94 93 91 90 89 90 90 91 92 95 96 96 88 72 71 68 68 67 64 62 60 58 56 57 57 55
84 77 70 72 70 66 82 81 85 85 84 85 94 93 88 84 80 88 96 95 95 90 87 87 90 93 94 93 91 90 89 89 91 93 93 93 94 94 95 94 78 71 69 64 61 58 54 49 46 45 48 52 54 55
74 86 70 75 63 62 71 69 66 72 85 86 95 97 85 70 84 94 99 94 87 85 87 90 93 93 92 91 93 94 93 90 94 95 96 96 95 94 94 93 80 73 65 60 55 50 46 43 44 46 48 49 52 53
78 66 74 63 61 64 86 90 97 98 99 87 75 86 70 74 90 99 97 91 87 87 88 88 89 91 95 97 96 96 96 96 96 97 96 94 93 94 96 92 71 72 69 61 49 43 41 43 46 47 47 48 50 52
62 59 58 77 74 86 100 100 100 98 96 93 85 98 98 98 100 98 95 93 92 92 92 91 91 93 95 96 98 99 99 99 98 96 95 95 94 95 95 95 80 60 56 52 46 46 49 53 55 60 59 64 75 79
67 65 64 86 95 100 100 100 100 100 96 93 92 93 98 100 100 100 97 97 96 93 90 92 95 97 98 99 99 98 98 98 98 98 97 98 98 98 98 96 89 75 57 50 53 60 74 88 95 96 96 96 95 95
70 63 71 90 100 100 100 100 99 98 96 96 91 88 98 98 99 98 96 96 95 96 96 97 99 100 100 100 99 99 98 98 98 98 98 97 96 96 97 97 97 96 97 97 98 98 98 98 98 98 97 96 96 93
68 81 75 100 98 97 96 95 95 91 91 88 94 95 98 97 97 97 96 96 97 97 99 100 100 100 99 99 99 99 98 98 98 98 98 99 99 96 97 97 98 98 98 98 97 97 97 97 97 97 97 97 97 96
76 80 88 88 93 95 93 85 87 90 89 93 92 94 96 94 94 96 96 96 97 100 100 99 98 98 98 99 99 99 99 99 98 98 98 99 100 98 97 98 97 98 97 98 98 97 97 97 97 97 97 97 97 97
Wind_Speed
19 17 15 15 14 12 16 16 13 14 9 8 10 16 23 28 31 31 34 30 28 10 10 15 12 7 7 7 4 7 4 2 2 4 3 3 3 4 2 3 5 6 5 4 3 4 7 1 1 2 0 2 5 9
17 16 17 17 19 20 19 16 16 13 12 9 4 8 10 12 17 22 26 21 22 8 5 10 11 13 13 9 7 11 3 5 8 2 1 2 2 2 3 4 2 3 5 3 7 4 2 2 5 5 2 3 7 12
19 16 14 13 13 15 17 18 20 21 17 13 9 7 7 10 10 12 11 13 15 4 5 9 11 15 15 15 15 8 7 7 7 6 5 1 4 4 4 5 2 3 5 3 0 1 2 7 5 2 2 7 11 13
22 17 13 10 11 11 12 13 14 16 19 17 15 10 9 6 11 14 14 15 14 5 2 4 8 10 13 15 15 16 12 9 8 8 4 2 2 7 3 3 4 4 4 4 4 2 5 5 3 3 7 10 14 16
24 20 15 10 8 10 12 11 10 9 11 14 14 14 13 11 10 11 13 15 15 10 4 3 6 9 10 10 12 13 11 10 7 5 4 3 3 3 3 1 3 7 5 4 4 2 1 2 4 6 9 13 16 19
27 23 19 15 9 8 8 9 10 10 10 10 13 16 17 17 16 12 7 13 17 16 2 2 4 4 5 7 7 7 8 9 6 5 4 4 4 5 2 3 2 4 2 1 1 1 3 4 5 7 12 15 16 17
29 27 23 19 15 10 6 5 4 8 10 10 11 15 19 18 22 17 6 4 21 16 3 2 0 3 7 8 8 8 8 5 5 4 5 3 5 6 2 3 4 5 2 0 1 2 3 2 4 10 13 15 16 17
32 28 25 23 18 13 9 6 3 5 9 9 8 12 20 20 22 24 11 10 17 17 5 3 0 3 10 5 3 4 3 4 4 2 2 3 4 4 3 3 7 4 3 2 2 3 3 5 8 11 14 15 17 19
31 31 29 26 21 16 12 8 5 5 11 10 11 15 22 22 12 10 12 16 19 9 5 5 4 3 11 5 4 5 5 1 3 3 3 6 2 4 2 6 8 4 3 3 4 5 4 8 11 12 15 16 18 20
30 29 29 28 24 19 14 10 7 8 12 10 15 12 7 11 14 19 13 10 11 9 7 5 7 3 9 6 4 5 3 2 2 3 4 2 3 4 3 6 7 4 3 3 3 4 7 9 12 14 16 16 17 19
31 28 26 26 24 21 15 11 7 15 14 22 10 5 12 19 15 9 5 5 4 1 7 7 8 6 9 4 3 5 3 1 1 3 3 2 2 5 7 5 3 2 2 3 4 5 8 11 14 16 17 16 17 18
29 30 28 25 24 21 16 14 13 18 22 19 6 14 18 6 4 3 1 1 3 5 9 9 6 6 7 5 4 4 2 1 3 2 1 3 1 7 6 4 2 2 2 3 5 7 8 10 12 15 16 17 17 18
28 27 27 26 23 22 19 16 15 20 23 20 8 7 8 5 3 7 7 4 2 12 12 13 7 7 6 4 5 3 3 4 1 1 3 3 8 7 5 4 2 2 4 6 8 9 10 11 12 14 16 16 17 17
26 25 25 26 26 23 22 16 20 21 20 8 7 5 7 4 5 4 4 4 6 10 24 23 9 4 4 3 3 4 2 2 2 1 5 3 11 7 5 3 3 5 6 8 10 10 12 13 12 13 15 16 18 18
25 25 24 25 26 25 21 18 21 32 14 6 5 4 4 2 2 7 12 13 10 24 29 15 9 3 3 3 1 3 3 3 5 4 2 9 10 5 3 3 4 6 8 10 12 11 11 11 12 12 14 15 16 16
24 22 24 24 24 22 21 21 24 28 10 4 4 1 1 3 1 8 10 14 23 31 18 4 4 3 0 4 3 5 7 6 3 3 8 10 7 4 4 5 7 8 8 9 9 9 9 10 11 12 13 15 14 15
23 25 27 27 24 22 19 22 22 4 6 4 1 4 5 1 4 5 15 16 31 25 3 5 4 5 6 3 2 3 4 3 10 12 8 7 5 5 5 5 5 5 5 6 7 8 8 10 12 13 14 13 13 13
28 28 25 25 29 29 30 14 7 4 4 4 5 7 6 7 12 12 10 25 14 8 6 3 8 3 5 6 3 3 5 11 9 7 6 4 3 2 2 3 3 4 5 6 7 8 9 11 12 12 14 14 12 10
30 31 30 33 34 25 6 4 3 4 5 7 11 11 10 13 11 10 16 17 7 6 10 3 4 2 2 3 4 12 14 12 12 8 4 2 1 0 1 2 3 4 5 5 6 9 10 11 12 13 14 13 11 11
15 25 37 36 34 13 6 5 5 6 5 5 8 9 9 7 14 16 16 12 11 3 3 2 2 2 1 7 10 12 13 9 8 8 6 3 1 1 2 2 4 4 5 6 7 8 10 8 9 10 11 12 10 9
32 50 52 51 28 10 7 6 5 6 9 7 12 6 7 10 7 9 8 7 3 4 2 0 7 9 13 12 11 8 7 6 6 5 4 4 2 1 1 2 4 5 5 6 7 7 8 8 9 10 10 9 8 9
33 35 34 22 9 7 7 5 9 10 5 8 5 6 6 4 3 3 6 4 3 2 3 9 13 12 10 9 8 6 5 5 4 4 3 2 2 2 2 3 4 4 5 6 7 7 7 8 8 8 9 8 8 8
20 16 10 8 7 5 6 4 3 3 4 3 3 4 3 3 3 6 4 2 2 5 11 13 11 9 8 7 6 4 4 3 3 2 2 2 2 3 4 3 3 4 5 6 6 7 7 7 7 7 8 8 7 7
10 5 5 5 6 5 6 3 4 5 5 4 3 3 2 3 4 2 2 2 6 11 11 10 8 7 6 5 5 4 3 3 2 2 2 3 3 3 3 2 2 3 4 5 5 5 5 6 6 6 7 8 8 8
5 8 5 6 5 5 4 3 3 3 3 2 3 2 2 3 2 2 1 4 11 11 9 8 7 6 5 6 6 4 3 3 2 3 3 3 3 3 2 2 1 2 4 5 5 4 4 5 5 6 6 7 8 9
7 10 5 2 2 4 2 4 2 4 3 3 3 3 2 2 2 2 2 9 10 10 8 7 6 6 6 5 4 4 3 3 3 4 3 2 2 3 3 3 1 2 3 3 3 3 3 4 4 5 6 7 7 8
5 4 6 5 5 7 8 8 7 6 4 3 3 3 2 3 2 1 6 9 9 10 9 8 7 6 5 4 4 4 3 2 3 3 2 1 2 2 3 3 2 2 2 2 2 2 3 3 3 4 5 6 6 7
6 6 4 4 9 8 6 5 4 3 2 3 4 2 4 4 3 5 6 9 10 10 8 7 6 6 6 6 6 5 4 3 3 3 2 2 2 2 2 3 2 2 2 2 2 2 2 2 2 3 4 5 5 7
8 6 5 8 7 10 9 5 3 3 3 2 3 2 3 3 6 7 10 10 9 8 7 6 5 5 5 5 5 5 5 5 5 4 3 3 3 3 3 3 3 3 3 3 3 2 2 2 2 3 3 3 4 6
6 8 5 6 6 4 6 6 8 10 9 7 6 6 6 7 7 8 8 8 7 6 5 5 5 5 4 4 3 3 4 4 5 5 4 3 3 4 4 4 4 3 3 3 3 3 4 5 5 5 4 4 5 6
4 4 7 8 6 5 10 12 12 10 8 8 8 6 7 6 5 5 4 4 5 5 5 5 5 5 4 4 3 3 3 3 4 4 2 1 2 3 2 3 3 3 3 3 3 3 3 3 3 4 4 5 6 7
7 7 5 4 4 7 5 3 3 3 3 3 4 4 4 3 2 2 1 0 1 3 4 4 4 4 4 4 4 3 3 3 5 6 4 2 4 2 0 1 1 2 2 2 1 2 3 4 5 6 7 8 9 10
4 8 8 6 4 3 3 3 3 3 4 3 3 3 3 2 2 1 1 1 0 1 2 3 3 4 4 5 6 6 5 5 6 6 5 1 0 1 4 7 6 6 6 5 5 6 7 8 9 11 12 12 13 14
Wind_Direction
231 238 252 255 248 242 233 240 240 237 242 237 233 229 231 235 232 224 228 230 214 206 205 202 208 183 181 184 166 160 118 189 137 191 188 220 195 233 232 217 184 185 181 212 198 241 265 86 100 238 337 269 321 328
229 237 231 242 245 248 248 248 235 240 243 242 244 234 226 225 225 226 230 222 211 191 188 201 229 236 234 219 207 187 224 168 186 125 245 147 218 179 195 265 182 251 199 190 194 236 141 143 224 219 261 318 321 325
222 223 234 231 233 235 240 236 233 229 229 238 237 251 220 191 190 191 203 195 185 201 265 242 235 233 234 231 223 203 214 204 197 183 164 140 225 139 195 234 239 253 212 229 349 173 156 156 160 181 320 318 323 324
216 221 221 229 236 230 212 215 221 223 225 221 230 221 233 237 208 195 187 180 198 160 229 242 232 226 232 232 229 227 236 210 197 185 177 177 210 187 212 252 214 213 160 214 250 143 134 166 193 273 311 320 324 324
212 215 216 220 222 212 199 212 227 226 219 221 218 204 193 212 207 196 205 209 208 201 190 232 243 241 240 229 226 229 230 212 190 173 186 209 207 195 221 242 228 199 208 189 245 117 150 175 252 308 317 326 328 326
215 210 212 211 209 200 197 216 230 231 222 218 210 199 191 195 191 176 207 201 195 198 210 201 228 233 223 203 200 201 207 209 195 177 195 219 208 190 212 230 221 202 201 231 226 279 283 260 250 300 320 325 327 325
218 207 210 213 210 203 198 210 235 242 223 218 217 207 200 191 187 182 192 208 204 203 224 122 202 141 149 159 173 186 199 196 188 189 229 225 199 204 241 233 158 164 150 274 312 290 217 255 291 314 318 322 324 325
217 217 211 212 217 213 218 230 253 254 213 207 206 195 192 202 209 193 189 147 168 178 213 137 115 183 174 156 147 175 186 187 212 239 234 221 182 222 257 208 164 172 205 237 309 328 306 307 310 314 320 327 332 333
218 216 216 212 213 216 221 235 259 254 196 204 212 187 195 197 202 197 183 164 184 191 191 171 158 199 165 150 151 161 176 177 211 222 231 182 206 223 203 196 188 204 225 269 316 310 306 318 321 332 331 333 336 334
217 218 217 215 210 211 217 227 255 205 184 188 181 173 168 156 157 166 161 176 199 212 203 176 148 159 161 157 154 144 177 213 200 230 178 175 249 167 130 155 176 197 245 279 302 265 303 314 330 335 331 332 333 332
213 212 216 217 214 213 209 217 211 187 194 194 183 165 155 156 153 181 187 171 185 256 197 166 171 138 176 136 157 201 178 210 82 263 168 243 250 172 179 191 201 229 279 310 315 320 316 318 328 327 327 329 331 333
215 213 211 213 213 206 206 217 211 197 197 202 183 139 143 178 174 153 130 96 206 216 161 150 147 131 142 151 125 160 146 104 246 140 67 266 222 164 176 177 190 246 289 311 310 307 310 317 323 322 323 324 329 333
210 210 210 207 210 207 203 211 208 208 204 200 179 155 151 169 178 181 190 248 222 171 166 154 138 146 138 159 107 115 115 207 145 85 230 229 162 172 188 188 223 283 306 307 304 305 318 319 321 319 321 325 328 333
204 203 206 209 205 202 201 202 202 208 204 197 176 185 192 191 242 185 181 161 161 166 156 149 118 138 135 109 138 119 210 96 72 252 236 208 175 174 187 199 264 287 291 296 298 316 319 318 324 325 325 326 329 333
199 200 204 203 198 198 185 195 213 198 197 198 203 223 214 169 132 155 139 133 143 158 148 124 94 121 66 98 68 99 58 253 210 225 221 172 173 185 212 248 273 287 289 296 307 319 314 319 327 331 326 329 330 329
197 198 201 196 197 196 186 198 201 196 202 151 148 151 22 61 122 155 154 143 151 156 145 116 110 74 274 137 120 203 145 213 231 212 154 160 173 195 232 277 292 289 297 309 317 320 323 327 329 332 332 331 328 327
191 199 197 193 190 190 199 193 187 199 129 134 130 147 162 69 180 145 155 155 157 159 133 126 110 186 121 57 281 210 200 204 152 142 156 165 188 249 289 295 291 300 319 320 318 319 326 330 331 331 330 332 332 333
209 208 200 186 184 169 172 173 156 132 111 131 156 137 136 135 147 157 150 160 162 169 144 170 132 125 170 168 236 202 144 142 147 152 168 205 246 274 290 289 310 327 316 314 318 322 330 332 334 336 334 337 338 336
220 212 195 192 189 164 132 103 116 106 80 94 117 129 123 125 133 152 157 164 160 151 136 132 85 160 204 197 160 155 163 160 166 176 186 188 195 226 311 332 341 327 314 312 317 327 334 337 338 338 336 343 347 347
206 203 193 195 184 159 104 98 108 106 115 113 128 114 96 107 128 140 148 144 135 132 62 46 122 130 136 148 147 154 157 164 177 168 173 186 260 332 11 360 347 335 325 322 328 326 329 337 328 336 347 351 350 354
170 142 156 162 151 101 105 121 88 97 119 112 127 110 102 120 114 119 106 109 77 41 48 114 131 135 134 138 144 155 159 160 175 184 193 205 274 339 14 343 339 330 324 327 333 333 335 341 343 351 357 359 3 3
130 139 125 137 83 79 78 79 110 112 98 127 109 89 97 87 82 69 96 74 89 134 170 146 139 142 144 151 151 149 150 154 160 177 205 212 272 323 320 314 315 329 336 332 337 344 347 347 346 352 356 4 6 3
92 89 67 53 86 83 112 107 110 90 112 105 77 77 53 76 100 112 81 102 134 150 148 148 150 152 161 160 152 154 154 153 161 186 232 255 279 274 273 289 309 339 337 335 339 346 346 349 349 353 358 2 7 10
95 80 76 79 87 116 129 87 87 92 92 74 85 108 102 124 137 75 97 128 148 150 154 158 165 177 180 182 186 187 179 175 185 220 250 274 268 239 261 285 294 326 341 347 351 356 356 359 7 7 9 17 25 27
95 23 54 61 89 118 95 94 85 89 99 109 115 123 146 145 110 71 114 163 168 165 167 171 177 188 207 205 203 198 202 221 236 239 248 264 252 229 222 245 270 314 340 352 353 355 7 20 24 23 25 31 38 34
72 24 51 50 58 100 151 112 132 124 120 87 68 117 106 99 89 204 189 169 168 170 172 182 192 202 204 200 200 212 226 241 240 229 241 248 230 212 207 210 237 294 333 351 360 11 20 28 33 31 28 30 37 38
67 2 47 52 97 110 96 81 99 89 82 107 157 135 101 94 208 175 158 165 170 176 180 183 194 204 209 217 219 222 232 239 221 218 209 226 231 225 224 231 252 277 314 346 360 5 4 14 24 31 33 33 31 32
73 45 73 19 64 54 100 70 57 71 108 115 146 71 127 164 177 160 168 171 173 177 183 197 210 220 224 223 227 227 218 201 197 208 229 250 258 250 237 236 253 257 272 297 328 328 332 349 8 19 22 25 25 22
46 35 46 45 57 51 45 51 81 70 75 91 97 116 120 104 141 152 160 166 173 180 193 202 215 229 233 234 233 230 227 224 229 235 253 277 276 265 264 246 244 249 259 269 276 293 298 320 340 348 353 1 5 8
36 25 81 56 57 37 33 69 92 91 83 89 97 104 102 114 132 145 161 173 183 198 212 226 236 238 238 238 241 240 235 228 234 237 238 247 259 256 248 242 237 241 256 267 279 298 306 307 307 309 316 333 348 351
40 42 73 60 78 78 98 97 92 83 77 68 82 106 113 121 134 146 168 193 216 229 235 236 236 233 234 231 225 221 210 205 201 198 204 261 301 285 270 258 253 252 254 253 256 264 279 288 297 305 315 326 332 333
33 52 93 94 108 131 108 79 79 83 81 75 68 72 91 94 100 121 111 96 255 242 235 225 216 214 220 226 220 214 219 202 187 173 148 55 325 271 277 9 319 278 265 264 278 307 318 321 320 319 318 318 319 322
65 60 80 96 114 133 114 107 79 83 69 73 72 70 76 90 100 124 95 6 324 184 179 185 200 212 220 223 224 222 224 218 213 214 213 112 91 283 287 309 306 289 280 283 297 308 312 320 325 322 315 311 309 310